OBJECT U

Satellite information

Favourite Embed

Satellite Type and Status

UNKNOWNIN ORBIT

Key statistics

Satellite OBJECT U at a glance.

Uptime

3025

Days in orbit

Revolutions

≈ 15.0

Per day

Orbit

SSO

Sun Synchronous Orbit

Inclination

97.4

Latest

Satellite identification and parameters

Extended collection of information and parameters for OBJECT U.

Object identification

Identified? True

Debris? False

Object name: OBJECT U

International designator: 2017-042U

Object number (NORAD): 42843

Object ID (CCSDS): 42843

Country: TO BE DETERMINED/UNKNOWN (TBD)

Current information (Y/N): Y

RCS size: MEDIUM

Orbital parameters

Period: 96.016 minutes

Inclination: 97.4087 deg

SMA: 6945.813 km

Apoapsis: 575.888 km

Periapsis: 559.468 km

RAAN: 100.0838 deg

Eccentricy: 0.00118204

Argument of periapsis: 185.0622 deg

Mean anomaly: 175.0485 deg

Mean motion: 14.9974739 rev/day

Mean motion (dot): 0.00003642 rev/day2

B* drag term: 0.00029892778 1/REarth

Two-line elements (TLE)

Creation date: Oct. 25, 2025, 3:11 a.m.

Reference frame: TEME

Reference center: EARTH

Epoch: Oct. 24, 2025, 10:10 p.m. UTC

TLE line 0: 0 OBJECT U

TLE line 1: 1 42843U 17042U 25297.92373641 .00003642 00000-0 29893-3 0 9994

TLE line 2: 2 42843 97.4087 100.0838 0011820 185.0622 175.0485 14.99747390451344

Live tracking on map

Real-time ground track for satellite OBJECT U.

In-orbit conjunctions

There are no conjunctions computed for OBJECT U, at the moment. Check back to stay up to date, as we update our databases every day.

Go to all conjunctions

Associated space launch

Kanopus-V-IK is a small Russian remote sensing satellite for monitoring wildfires. Weighing about 473 kg, it is intended for 5 years of operation in a 510 km sun-synchronous orbit.

OBJECT U was lifted into orbit during the mission ‘Soyuz-2.1a/Fregat | Kanopus-V-IK’, on board a Soyuz 2.1a/Fregat-M space rocket.

The launch took place on July 14, 2017, 6:36 a.m. from 31/6.

For more information about the launch, click the button.

Launch to space Soyuz-2.1a/Fregat | Kanopus-V-IK
Soyuz-2.1a/Fregat | Kanopus-V-IK

Agency: N/A

Status: Launch was a Partial Failure

Launch date: July 14, 2017, 6:36 a.m. UTC

Rocket: Soyuz 2.1a/Fregat-M

Launch pad: 31/6

Location: Baikonur Cosmodrome, Republic of Kazakhstan

...

Latest news about this satellite

There are no fresh news available about this satellite. Check back as we update our databases every day.


Newsletter sign-up

Weekly statistics, charts and insights to help you stay on top of the space industry.